Wind_Speed
14 14 14 13 12 12 14 15 14 13 13 14 14 13 14 13 11 11 11 12 12 10 10 12 9 9 10 10 9 8 8 9 10 10 10 9 8 6 5 5 4 4 4 5 5 5 4 4 4 4 4 4 4 3 4 5 6 7 7 7 6 6 6 7 7 6 6 7 7 8 10 12 14 16 17 18 19 19 19 19 20 21 22 23 23 23 25
15 15 15 16 16 15 15 16 16 16 16 16 16 16 16 17 17 16 14 13 11 9 11 12 7 4 8 8 7 8 9 10 11 11 11 10 8 7 6 5 4 3 3 4 4 4 4 5 5 5 4 4 4 3 3 4 5 5 5 5 5 5 5 4 5 5 6 7 7 8 9 10 11 13 15 17 18 19 19 19 19 19 19 21 22 21 21
13 14 15 16 17 18 18 18 18 18 18 18 17 15 15 15 17 16 14 12 10 9 13 15 8 2 5 8 8 9 10 10 11 11 10 9 8 7 6 5 4 3 3 3 3 3 4 5 6 6 5 6 6 6 6 8 8 8 8 7 6 6 6 5 6 6 7 7 8 8 9 10 10 11 13 14 16 17 17 18 16 16 21 24 25 24 22
11 12 15 17 17 18 19 19 19 19 18 17 15 14 13 13 13 13 13 12 11 8 11 14 10 6 10 12 10 9 8 8 10 10 9 8 8 6 5 5 4 3 2 2 2 3 4 5 5 6 6 7 7 7 8 9 9 9 9 8 8 8 8 9 9 9 8 8 9 9 9 10 10 10 11 12 14 14 14 15 16 18 22 25 26 26 24
11 12 13 12 11 13 13 11 11 14 16 16 16 16 16 16 13 12 12 10 7 4 5 9 10 9 9 8 6 6 7 8 9 9 9 8 7 6 5 3 3 2 2 2 3 3 4 4 5 6 7 7 6 6 7 7 7 8 8 9 8 8 9 10 10 10 10 10 10 10 10 10 9 9 9 10 11 11 12 15 17 18 21 23 24 23 22
10 10 9 8 10 10 6 2 3 4 6 10 13 12 11 11 9 9 10 9 6 5 4 6 6 3 3 3 3 3 4 5 7 8 8 7 6 5 3 2 1 2 2 3 4 4 5 5 5 6 6 6 6 6 7 7 8 8 9 9 9 9 10 10 10 10 10 10 10 11 11 11 10 9 9 9 10 11 12 14 17 18 19 21 20 20 21
9 8 7 9 10 5 1 4 4 3 3 6 8 6 4 6 6 7 9 8 5 4 2 1 1 3 5 5 4 3 3 2 4 6 7 7 6 4 2 1 2 3 3 4 5 5 5 5 6 6 6 6 7 7 7 8 8 9 10 10 10 10 11 10 10 10 10 10 11 11 12 11 10 9 9 9 10 11 12 13 16 17 17 19 19 19 20
8 7 8 9 7 1 2 2 4 2 2 4 6 5 1 5 5 5 5 3 3 3 2 3 3 3 5 5 4 4 4 3 1 2 4 6 6 3 1 3 4 4 5 6 6 6 6 7 7 7 7 7 8 9 9 10 10 11 12 12 12 13 12 11 11 11 11 11 11 11 12 11 11 10 9 10 10 11 12 13 15 16 17 18 19 18 17
7 8 9 9 9 8 7 2 4 4 2 2 4 6 2 4 5 4 3 2 2 2 1 1 2 1 4 5 4 5 5 5 4 2 1 0 2 2 3 4 5 5 6 7 7 7 7 8 8 8 9 9 9 10 11 11 12 13 13 13 14 15 14 13 12 12 13 13 12 12 11 11 11 11 10 11 12 13 14 14 16 16 16 17 17 16 16
7 8 9 8 10 9 3 2 4 4 2 3 4 6 4 2 4 4 3 2 2 2 2 2 2 3 6 7 4 5 4 4 4 3 2 2 2 4 5 6 6 7 7 8 8 9 9 10 9 9 10 10 10 11 11 12 13 13 13 14 15 15 14 13 13 14 14 14 13 12 12 12 11 11 11 12 13 14 16 16 16 17 17 17 17 17 18
7 8 8 8 9 5 3 3 3 4 2 2 4 5 5 2 7 6 4 4 4 3 3 4 4 5 8 8 3 5 5 5 5 4 4 4 5 7 7 8 8 9 9 10 10 11 11 11 11 10 11 12 12 12 12 12 13 13 13 15 15 15 14 13 13 13 13 14 13 12 12 12 12 12 12 13 14 16 17 17 17 17 16 17 18 18 18
8 9 8 8 7 2 3 2 3 5 4 2 3 6 4 4 9 8 7 7 6 5 5 6 6 6 8 6 1 6 7 7 6 6 6 7 8 10 10 10 10 11 12 12 12 12 12 13 13 12 13 14 14 14 13 13 14 14 14 16 16 15 14 13 13 13 13 14 13 13 13 13 13 13 13 14 15 17 18 17 17 17 16 19 21 18 16
8 9 9 8 6 2 4 3 4 5 3 2 6 6 3 7 10 9 8 9 8 7 7 6 6 6 7 6 7 9 9 9 9 10 11 11 12 12 12 12 12 13 14 14 14 15 15 15 15 15 15 15 15 15 15 15 15 15 16 18 17 16 15 14 14 13 13 14 14 13 13 14 14 14 14 15 16 17 16 15 15 16 18 22 22 18 16
7 7 8 9 5 3 7 7 6 4 3 4 4 4 5 7 10 10 9 10 8 8 8 7 7 8 9 10 11 11 11 11 11 12 14 14 14 15 15 15 15 15 15 15 16 17 17 16 16 16 16 17 17 16 17 17 17 17 18 19 18 17 16 16 15 15 15 14 14 13 14 14 15 16 15 15 16 17 15 15 17 19 21 23 22 19 16
7 7 8 9 5 2 7 8 6 3 3 4 5 6 7 8 9 10 10 10 8 8 9 9 9 10 11 12 12 12 12 13 13 14 15 16 16 17 18 18 18 18 18 18 19 19 18 18 18 17 18 18 18 18 19 19 18 19 19 19 18 18 17 16 16 16 15 15 14 13 14 15 16 17 15 12 12 13 13 15 19 22 23 22 20 16 14
5 6 6 4 3 3 6 7 5 4 6 6 7 9 9 9 9 9 8 8 8 9 9 10 12 12 12 13 12 11 12 12 13 14 15 17 18 19 19 20 21 21 21 21 21 21 20 20 19 19 19 20 20 21 21 20 20 20 20 20 19 18 17 16 17 16 16 16 15 15 16 17 16 14 12 10 10 12 15 19 22 23 22 20 17 13 11
5 7 8 8 9 9 8 8 7 9 10 10 11 12 11 10 10 9 8 9 10 11 12 13 14 13 14 15 14 13 13 14 14 15 17 19 20 20 21 21 21 21 23 23 23 23 22 21 21 20 20 21 22 23 22 21 21 21 21 21 20 19 18 17 17 17 17 17 16 16 17 15 13 12 14 14 13 17 22 25 24 20 18 16 14 12 10
9 10 10 10 11 11 11 11 11 12 12 12 12 12 11 10 10 10 10 12 13 13 14 15 14 15 16 17 17 17 16 17 17 18 19 21 22 22 23 23 22 22 23 24 24 24 23 21 21 21 21 22 24 25 24 23 22 22 22 22 21 20 19 18 17 17 18 17 17 16 13 11 11 14 16 17 19 24 26 25 24 22 18 14 13 12 10
9 8 8 9 11 12 13 14 14 14 14 13 12 11 11 11 12 13 13 15 15 16 16 16 16 17 17 18 18 18 17 18 18 18 19 21 22 23 23 23 23 23 23 23 24 24 24 24 24 25 26 26 27 27 27 26 25 25 24 24 24 23 21 19 17 18 19 17 14 11 10 10 11 13 19 24 26 27 25 22 21 21 18 14 12 11 10
9 10 12 13 15 15 14 13 12 12 13 13 13 13 13 14 15 16 17 17 17 17 17 18 18 18 18 18 18 17 16 17 16 17 20 22 23 24 24 23 23 24 24 24 25 26 27 27 27 28 28 28 28 28 28 27 27 26 26 26 25 24 22 20 19 19 17 14 12 11 11 13 15 18 23 28 29 27 26 25 23 20 17 14 12 11 10
10 11 13 13 13 14 13 13 13 12 12 14 16 16 16 16 17 18 19 19 18 18 19 18 18 19 19 18 19 19 17 16 16 19 22 24 24 24 24 24 24 25 25 26 27 29 30 29 28 29 29 29 28 28 28 27 26 26 26 25 26 25 23 20 20 17 13 13 15 15 16 18 18 18 19 22 24 24 24 24 24 22 18 15 13 10 9
9 9 11 12 12 12 12 13 15 16 15 16 18 18 18 18 19 18 19 20 20 21 21 20 18 19 18 18 19 19 17 17 19 22 24 25 25 25 24 24 25 26 27 28 29 31 31 30 30 30 30 29 29 28 28 27 25 25 25 25 26 26 23 21 20 15 12 15 18 19 21 21 20 20 21 21 22 22 22 22 22 20 16 14 13 11 9
10 12 13 13 11 12 13 15 17 18 17 18 19 20 19 19 18 18 18 19 19 19 20 20 19 17 17 18 20 18 18 20 24 25 25 25 25 25 25 25 26 28 29 29 30 31 31 31 31 31 31 31 30 28 27 26 23 23 24 23 24 24 22 21 18 13 14 18 20 20 21 21 21 21 21 20 20 22 22 21 19 16 14 14 14 12 11
12 14 14 13 13 15 17 18 19 19 17 18 19 18 17 16 16 17 17 17 17 17 16 17 19 18 18 20 20 19 19 23 26 26 26 26 26 26 27 27 28 29 30 30 29 30 30 30 30 30 29 28 27 25 25 25 24 24 25 24 22 22 20 18 16 15 18 21 21 20 18 19 20 20 19 19 18 18 19 20 18 16 15 13 12 11 11
12 14 14 14 16 17 17 17 17 17 16 16 15 15 15 15 16 17 16 15 16 17 15 16 19 21 21 21 22 21 21 25 27 26 26 26 26 26 27 28 29 29 29 29 29 29 28 28 27 26 26 26 26 26 26 25 26 28 29 27 25 22 17 14 16 20 23 23 25 25 21 18 19 20 21 21 19 18 20 21 19 16 14 12 10 10 10
13 14 14 15 15 14 13 14 14 14 16 17 15 16 18 19 18 18 16 15 17 18 17 17 19 21 22 22 23 23 23 25 25 24 23 24 24 24 26 27 28 28 28 29 28 26 25 25 26 26 26 25 24 22 20 19 20 23 23 22 21 19 15 15 19 24 25 24 25 26 23 19 19 21 22 23 21 19 19 19 17 16 15 12 11 10 9
11 11 11 13 13 13 12 13 14 16 18 18 17 18 20 21 19 17 16 17 18 19 19 18 18 18 19 20 20 20 20 20 21 20 21 23 23 24 26 26 27 27 27 25 24 24 25 26 24 21 18 15 13 12 12 12 13 16 16 16 17 18 19 22 25 26 26 24 22 22 24 24 23 22 21 22 21 20 18 16 15 15 14 12 11 10 9
9 9 9 10 12 13 14 16 17 17 17 18 17 17 18 18 16 14 15 15 14 14 14 15 15 15 15 16 17 16 16 17 18 18 20 22 23 24 25 25 26 25 24 22 22 22 20 15 9 5 5 5 3 5 7 9 12 16 18 20 23 23 23 24 25 26 29 29 27 28 30 29 25 21 20 19 18 17 16 15 14 14 13 13 12 10 8
10 10 10 10 12 14 15 16 15 14 15 16 16 15 15 14 12 10 10 10 9 9 11 12 13 13 13 13 14 14 13 14 15 16 19 20 20 20 21 22 22 21 19 17 14 9 4 2 7 9 10 10 10 11 13 16 20 24 27 29 29 27 25 26 27 30 32 33 32 32 31 27 22 20 19 18 17 16 15 13 13 13 13 13 13 10 8
12 12 12 12 12 13 13 13 13 11 12 13 13 11 10 9 7 7 8 9 8 9 10 11 11 12 12 12 13 13 13 13 14 16 16 16 16 16 14 13 12 10 7 4 1 3 6 9 12 13 15 18 19 19 22 25 28 30 32 31 30 28 28 29 30 30 30 30 31 29 25 21 19 19 18 16 15 14 13 13 13 12 12 12 11 9 8
13 13 13 12 11 11 12 12 11 10 10 10 11 11 10 10 9 9 9 9 8 9 10 11 11 11 13 15 15 15 14 13 13 13 14 15 14 13 8 6 7 7 9 10 11 12 12 13 16 17 18 21 23 25 27 30 31 31 30 29 29 29 29 27 26 26 28 28 25 22 19 17 17 17 15 14 13 12 12 13 12 11 10 9 8 7 6
14 14 13 12 11 12 13 11 8 8 9 10 10 10 10 10 10 9 9 9 9 10 11 11 11 13 16 17 16 15 14 12 12 15 17 16 13 12 15 17 18 19 19 17 17 17 17 15 15 15 17 21 23 26 29 31 31 29 27 26 25 25 23 20 19 21 25 23 19 16 16 16 16 14 12 11 11 11 11 11 11 9 9 8 7 7 6
13 12 12 12 12 13 13 9 7 8 8 8 9 9 9 10 10 9 10 11 12 13 13 13 14 17 19 17 15 15 14 13 13 16 18 16 13 16 21 22 23 24 25 23 22 21 19 16 14 13 14 15 17 20 23 24 24 22 20 19 20 19 17 15 16 18 18 17 16 15 15 14 13 12 10 9 9 10 10 10 10 9 9 8 8 8 7
11 9 9 9 9 9 8 7 7 7 7 8 8 9 11 12 12 12 13 14 13 13 14 14 16 18 19 16 15 18 18 14 11 13 17 17 16 22 27 27 26 26 27 26 25 24 20 16 13 11 11 10 11 13 15 15 15 15 14 14 15 16 15 16 17 17 15 14 14 13 12 10 10 9 8 8 9 10 10 9 9 9 9 8 8 7 5
10 8 8 8 8 8 8 8 7 7 7 7 7 8 10 12 13 13 14 14 14 14 16 17 17 18 20 19 18 19 19 16 13 14 16 17 20 27 32 30 27 26 26 26 24 22 20 17 14 13 13 13 12 11 10 10 10 11 12 13 15 16 17 18 17 15 13 13 13 12 11 10 10 9 8 9 10 10 9 9 8 8 8 7 7 6 3
10 7 7 8 9 10 11 10 9 9 8 7 7 8 10 12 13 13 13 14 14 15 17 18 18 19 21 21 18 18 19 19 18 18 18 19 24 31 35 31 24 22 23 24 23 20 18 19 20 19 20 21 20 17 15 14 13 14 16 18 18 19 20 20 18 15 14 13 14 14 13 12 12 11 10 9 9 9 9 8 7 7 7 6 6 5 4
10 8 7 7 9 11 11 10 10 9 9 8 9 10 11 12 12 12 13 13 14 15 16 17 18 18 19 19 19 20 24 25 24 23 22 22 25 32 34 30 25 23 23 22 22 19 17 19 24 27 26 25 24 22 20 19 18 17 16 17 17 17 18 17 17 15 15 14 14 14 12 12 11 11 10 10 9 9 8 7 6 7 6 5 5 5 5
9 9 8 8 9 10 10 9 9 9 9 9 10 10 11 11 11 11 12 13 14 15 15 16 16 16 17 18 20 22 26 29 30 27 24 23 27 32 31 27 25 24 21 19 19 19 18 20 25 29 27 24 24 23 22 20 18 17 16 16 17 17 17 17 16 15 14 14 13 13 12 11 10 10 10 10 9 8 7 7 6 6 5 4 4 4 4
8 8 8 8 8 8 8 9 9 9 9 9 9 10 11 11 11 11 12 12 13 13 13 14 14 15 16 18 20 21 23 26 28 28 25 25 28 29 27 25 25 24 21 20 22 23 22 22 24 25 22 20 21 22 22 21 19 17 17 18 18 17 17 17 16 15 15 14 13 13 12 11 10 10 10 9 8 8 7 7 6 5 4 3 3 4 5
7 7 7 7 7 7 7 8 8 9 9 9 10 10 10 10 11 11 11 12 12 12 13 13 13 14 15 16 18 19 20 21 23 25 25 25 25 24 22 24 27 26 26 27 28 28 27 24 22 21 20 20 19 19 20 21 21 19 17 17 17 16 16 16 15 14 14 13 13 13 12 11 11 10 9 8 7 7 6 6 6 5 4 4 5 5 5
6 5 5 5 5 6 6 6 7 8 8 9 9 10 11 11 11 11 11 11 11 12 13 13 13 14 14 14 15 17 17 18 21 24 24 24 23 21 19 19 23 26 28 29 31 33 33 30 24 20 19 19 20 20 20 20 21 19 18 18 17 16 16 16 15 14 13 12 12 12 11 11 10 10 9 8 7 7 6 6 6 5 5 6 6 6 5
4 3 4 4 4 3 4 5 5 6 7 7 8 10 11 11 11 11 11 11 11 11 13 14 14 14 14 13 14 15 16 17 19 22 24 24 23 21 17 16 19 24 27 29 31 33 33 29 26 23 20 19 20 21 21 20 20 20 19 18 17 16 16 15 15 14 13 13 12 12 11 10 10 9 9 8 8 7 7 7 7 7 7 7 6 6 5
4 3 3 2 2 2 3 4 4 5 6 7 8 9 10 10 11 11 11 11 12 12 12 13 14 15 15 15 14 14 15 15 15 16 19 22 23 22 19 16 17 22 25 27 30 32 30 27 26 26 24 21 21 22 22 21 21 20 19 18 17 16 16 15 14 13 13 13 12 12 11 10 10 9 9 8 8 8 8 8 7 7 7 7 7 6 5
4 3 3 3 3 3 3 4 4 4 5 6 7 8 8 9 10 10 10 11 12 13 13 13 13 14 14 15 15 15 15 15 14 13 13 14 18 20 20 17 17 20 22 22 23 26 26 24 24 24 24 23 22 22 21 20 19 18 18 17 16 16 15 14 14 13 13 12 12 11 11 11 10 10 10 9 9 9 9 9 9 8 8 8 7 6 6
6 5 5 5 4 4 4 4 4 4 4 5 5 6 7 8 8 9 10 10 11 12 12 13 13 13 13 12 13 13 14 14 15 14 13 12 13 15 17 16 17 19 20 19 18 20 21 21 20 22 23 23 22 21 20 19 18 17 17 16 15 15 15 14 13 13 12 12 11 11 11 11 11 11 10 10 10 9 9 8 8 8 8 7 7 7 6
6 6 6 5 5 4 3 3 3 2 2 2 4 5 6 6 6 7 8 9 10 10 11 12 12 13 13 12 10 10 11 13 14 15 15 13 12 12 13 15 17 20 20 19 19 18 18 18 20 22 22 21 20 19 19 18 17 16 16 15 14 14 14 13 13 12 12 11 11 11 11 11 11 10 10 9 9 8 7 6 6 6 6 6 7 7 6
6 7 6 6 5 5 4 3 3 2 1 1 3 4 4 4 5 6 7 7 8 9 10 10 11 12 13 13 12 11 10 10 12 13 13 13 12 12 12 13 15 17 19 20 21 19 18 18 20 21 20 19 19 18 18 17 16 16 15 15 14 14 13 13 12 12 11 11 11 11 11 11 10 9 8 8 7 6 5 5 5 5 5 6 6 7 7
7 7 7 6 6 5 5 4 4 3 1 1 2 3 3 3 3 4 4 5 6 7 8 9 10 10 11 12 12 12 11 10 10 11 11 11 11 12 13 13 14 14 14 15 18 19 19 19 20 20 19 18 17 17 17 16 16 15 15 14 13 12 11 11 11 10 10 10 10 9 9 9 8 7 7 6 5 5 6 5 5 6 6 6 6 7 7
8 7 7 7 7 6 5 5 4 2 2 2 1 1 1 1 1 2 3 3 4 5 6 7 8 8 9 9 10 11 11 11 9 9 10 10 10 11 11 13 15 14 13 12 13 16 18 20 20 19 18 17 16 16 16 16 15 14 14 13 12 11 10 9 9 9 8 8 8 8 8 7 6 6 6 5 5 6 7 7 7 8 8 7 7 7 7
9 8 8 7 7 6 6 5 3 2 2 2 2 1 1 1 1 2 3 2 2 4 5 5 6 6 7 8 8 8 9 9 9 8 8 9 10 10 11 11 13 14 14 12 12 14 16 17 17 17 16 16 16 15 15 15 14 13 12 11 9 9 9 9 9 8 8 7 7 7 6 6 6 6 7 7 8 9 9 8 8 8 8 9 9 9 9
11 10 9 8 7 7 6 4 3 2 2 3 3 2 1 0 1 3 2 1 1 2 4 5 5 6 6 6 7 8 7 7 7 7 7 7 8 9 10 10 11 12 12 12 12 13 14 15 16 16 14 14 14 15 15 15 14 13 12 11 10 8 8 8 8 8 7 7 6 7 7 7 8 9 9 10 10 11 11 11 10 10 10 11 11 11 11
13 12 10 9 8 7 6 5 4 3 3 3 3 3 2 1 2 3 2 0 1 2 3 4 5 5 5 6 6 7 7 7 7 7 7 7 7 8 8 9 10 10 11 11 12 12 12 13 15 16 15 14 13 14 14 14 12 11 11 11 11 9 8 8 8 8 8 8 8 9 10 10 11 11 10 10 11 11 11 11 11 11 11 12 12 13 13
Wind_Direction
264 267 270 272 271 269 270 271 271 271 267 259 253 254 260 266 264 263 273 277 267 254 255 263 255 229 225 219 202 191 180 175 173 170 173 176 173 166 154 133 110 90 82 74 65 61 54 45 47 53 59 65 63 56 49 44 38 31 28 29 27 22 23 20 10 354 330 311 299 290 283 278 273 267 261 256 252 247 239 230 226 226 218 200 190 188 184
270 268 268 266 264 262 262 263 263 263 263 260 258 257 257 259 261 263 273 280 273 260 263 275 286 254 239 232 202 189 186 180 178 179 182 183 177 169 155 133 115 92 73 61 52 45 31 18 17 20 22 23 25 30 35 37 38 31 21 18 20 18 17 10 350 329 317 308 297 290 284 278 274 270 266 262 257 251 246 240 232 224 205 183 176 182 183
271 269 269 265 262 263 263 260 259 260 260 259 258 258 256 257 262 265 269 273 272 266 264 266 274 275 239 226 199 193 192 185 183 186 188 185 176 166 153 137 126 112 95 78 52 30 15 6 1 1 3 358 358 2 3 2 2 0 357 355 356 1 360 348 331 318 311 303 296 290 285 280 274 267 263 261 258 255 250 242 224 197 183 181 185 192 194
270 270 268 265 266 270 267 262 258 256 256 257 256 256 255 254 258 263 262 262 267 271 263 257 251 236 237 236 218 196 183 181 186 189 188 182 173 165 154 142 131 117 101 81 48 15 358 351 346 348 351 347 346 349 348 346 343 342 342 338 337 344 342 334 327 319 311 307 302 295 285 279 273 265 260 256 253 253 247 232 212 194 193 198 197 194 192
274 274 274 277 278 273 269 265 260 253 251 253 255 256 258 256 254 258 260 264 285 316 279 258 252 240 239 243 221 186 173 175 186 192 189 181 169 157 148 143 133 108 69 41 25 358 339 333 333 336 335 331 329 329 328 329 330 329 329 327 326 326 322 320 318 314 309 306 302 296 287 281 271 261 257 253 245 241 237 231 224 215 205 200 195 187 181
272 274 281 282 270 263 269 348 11 309 277 270 269 270 276 275 269 275 279 281 301 326 303 276 271 241 176 141 133 150 167 173 181 189 189 177 161 153 148 139 106 62 26 4 351 336 324 322 324 321 317 314 314 315 317 320 322 322 321 321 321 315 309 310 310 308 306 302 297 293 288 280 270 256 250 251 247 240 232 228 229 223 206 193 187 179 175
269 274 271 260 258 263 74 78 55 15 339 313 296 293 333 338 308 290 291 295 309 330 337 335 47 104 116 123 127 129 139 163 184 193 193 184 174 168 152 69 19 4 350 335 323 315 311 310 308 304 305 306 305 305 311 314 315 317 319 319 319 314 310 311 312 313 310 304 297 293 287 279 270 259 248 244 247 244 234 224 221 217 202 188 180 175 175
260 260 250 249 261 301 138 127 58 24 282 305 296 268 13 24 342 302 293 308 358 21 54 82 91 118 133 132 121 111 102 91 113 187 201 202 196 189 339 342 339 333 322 313 306 301 300 300 300 303 307 309 307 307 311 314 317 321 321 321 320 318 317 318 320 319 315 307 300 293 287 279 267 258 247 239 238 238 234 225 215 205 192 184 180 173 165
255 258 257 259 271 272 250 224 51 24 308 334 313 273 263 41 11 340 328 330 346 344 7 63 57 150 179 174 142 111 95 81 70 64 58 243 233 261 307 311 313 312 306 303 301 299 297 297 300 305 307 307 307 307 310 314 317 319 319 318 317 316 317 319 320 319 316 310 302 292 284 274 263 253 245 239 234 230 230 225 213 198 182 178 176 165 152
252 259 266 266 267 271 271 95 65 36 353 352 326 283 257 73 34 354 343 343 324 310 300 298 280 228 226 222 169 97 68 56 48 25 17 5 312 302 305 305 305 304 302 300 298 296 295 294 297 299 301 302 300 298 301 306 308 310 310 309 310 311 313 315 315 314 313 308 301 291 282 272 262 250 242 238 234 228 227 226 216 196 175 168 165 158 156
255 257 263 265 263 268 72 72 35 27 17 2 340 271 238 54 24 352 326 317 306 308 320 302 276 249 245 235 162 71 19 5 14 349 329 326 315 307 306 306 307 308 305 299 294 291 291 293 295 294 294 293 290 288 289 292 295 297 297 300 303 305 307 307 307 307 306 303 296 288 279 270 260 250 242 239 236 229 225 224 215 197 175 160 154 152 156
255 256 258 264 271 298 69 61 14 24 29 0 291 252 243 11 0 342 333 322 305 302 310 294 270 261 262 258 16 24 347 328 335 328 319 318 312 305 305 307 309 308 303 298 295 295 295 295 295 292 290 288 284 282 281 281 283 285 287 293 297 299 299 298 298 297 297 296 290 281 274 267 259 251 244 241 238 231 225 220 211 194 171 154 150 149 147
257 256 257 262 269 0 46 12 346 5 1 268 256 261 312 344 329 327 331 318 305 304 303 289 275 282 293 302 322 330 319 313 318 316 311 310 309 306 306 308 308 304 299 297 297 295 294 293 291 289 288 284 281 280 278 277 277 278 283 289 292 291 291 290 289 288 289 289 285 278 270 263 258 251 244 239 237 229 220 209 194 177 159 151 147 141 136
261 258 262 266 260 60 39 356 332 331 300 265 275 301 315 313 313 317 314 302 299 300 295 288 286 294 303 302 298 302 308 310 312 311 310 311 309 308 307 306 305 302 298 296 294 292 291 289 287 286 284 280 279 278 276 274 275 278 282 286 287 285 284 284 284 283 283 283 280 273 265 259 256 252 243 236 232 223 208 187 169 157 148 146 144 140 140
269 260 257 262 258 55 29 355 341 337 305 308 329 320 301 300 306 308 302 298 299 299 295 290 286 288 293 293 292 296 302 304 304 304 305 305 304 304 305 303 302 301 297 293 290 289 289 287 284 282 279 276 274 272 269 269 272 274 276 279 280 279 277 278 278 276 277 279 276 269 259 251 249 247 239 228 221 212 193 168 153 144 139 140 140 140 143
276 257 254 277 310 349 350 334 320 314 311 312 313 306 299 297 296 300 304 301 301 305 303 295 291 290 289 288 288 290 292 293 295 296 297 298 298 299 298 297 297 295 291 287 285 284 283 281 279 277 273 272 270 267 266 268 269 269 270 273 273 271 268 268 269 268 272 276 273 265 255 248 246 241 222 198 183 172 157 143 135 131 132 136 136 137 143
281 271 280 305 311 302 302 305 300 298 296 293 292 292 292 291 290 294 297 294 294 297 293 288 287 286 284 284 285 285 286 287 287 288 290 291 292 292 290 288 287 285 283 282 281 280 279 277 275 272 269 269 270 270 270 271 269 268 268 268 267 266 263 260 261 262 266 269 268 264 254 241 227 207 188 172 159 151 145 139 133 130 132 135 135 137 141
283 278 277 286 290 289 293 296 295 296 293 289 288 288 286 287 291 290 289 291 293 292 288 287 284 281 283 285 285 285 287 287 287 287 287 287 287 286 285 283 282 280 279 279 280 280 278 276 274 272 269 269 270 272 273 272 269 268 267 266 265 263 260 259 259 258 258 261 263 258 241 212 195 191 182 165 149 143 142 140 139 139 141 143 141 139 140
285 281 277 283 286 290 295 295 292 292 288 284 286 286 285 288 290 288 287 288 289 289 287 285 283 282 283 284 284 285 285 285 286 287 286 286 286 285 284 284 284 282 279 278 279 280 280 279 277 276 274 271 271 272 271 269 267 265 263 262 262 261 259 258 255 251 252 254 247 227 203 185 180 178 168 156 146 143 142 141 141 143 146 146 143 142 144
279 281 285 290 290 290 292 292 290 291 290 290 293 292 290 289 287 285 284 284 284 285 284 284 285 285 284 283 284 285 284 284 284 284 284 285 285 284 284 284 283 281 280 281 282 283 282 282 280 278 276 274 272 272 270 268 266 264 261 258 257 256 256 253 248 245 245 236 209 186 178 174 163 155 154 150 144 142 144 143 141 142 143 141 145 152 153
282 281 286 293 295 293 291 290 291 294 297 297 296 294 293 290 287 284 282 280 280 281 281 282 283 283 282 282 283 284 285 285 285 285 285 286 285 285 286 285 283 282 282 283 284 283 282 282 281 279 277 275 274 273 271 268 266 262 258 254 251 249 249 248 245 242 230 205 186 172 166 160 151 144 145 143 139 141 146 147 145 145 145 145 151 156 146
283 289 299 306 303 295 292 294 297 299 300 299 297 295 293 290 288 288 285 282 279 278 277 276 276 278 281 283 283 284 285 284 284 286 286 287 287 286 285 285 284 284 284 284 284 283 282 282 281 278 277 276 275 273 271 268 264 258 254 250 245 242 240 240 240 232 203 184 178 167 157 149 140 137 139 141 142 144 147 148 148 149 150 147 144 139 123
289 296 303 307 301 291 293 299 300 301 301 299 296 295 294 293 294 295 294 290 287 283 279 278 278 279 282 284 285 285 284 284 286 287 286 286 286 286 286 286 285 286 286 285 284 283 282 282 281 279 278 277 275 273 269 264 258 252 247 242 238 234 231 231 230 212 181 174 170 161 153 144 136 132 131 133 140 145 146 148 151 153 153 148 142 132 119
294 295 300 305 298 292 296 300 299 299 300 298 297 296 296 297 298 299 298 295 292 288 284 283 284 284 284 285 285 285 285 285 286 286 286 286 287 287 288 287 286 286 286 284 283 283 283 283 281 279 279 277 275 272 266 258 251 248 242 236 231 228 223 218 208 185 170 165 156 147 144 140 134 128 119 114 120 131 140 148 154 156 153 146 136 128 122
295 294 299 300 294 292 296 297 297 299 301 301 300 298 295 297 298 297 294 291 290 289 286 286 286 286 285 285 285 285 286 286 287 288 289 289 288 288 287 285 284 283 283 283 283 284 284 284 284 282 281 278 274 271 265 256 251 246 238 230 224 219 210 195 181 170 163 157 151 149 149 144 137 132 127 120 114 113 120 130 137 139 136 129 120 120 121
298 298 300 298 294 295 300 301 301 305 306 303 300 297 296 296 295 293 290 287 289 288 285 284 285 286 287 288 289 290 289 289 291 293 290 287 286 285 283 282 283 283 283 284 285 286 287 287 286 284 280 276 273 269 262 254 248 242 232 217 209 204 188 165 160 161 157 153 153 155 153 145 135 134 134 132 128 122 120 122 122 120 117 117 119 119 115
306 305 308 308 305 306 308 307 306 308 307 305 302 300 298 295 292 292 291 289 287 286 285 287 291 294 295 296 296 294 290 288 289 289 286 285 285 285 284 284 284 283 283 284 284 285 287 286 284 281 280 279 273 263 251 241 232 224 211 190 177 173 164 155 156 157 153 148 147 146 142 136 132 133 137 138 138 140 142 141 135 128 122 121 122 123 119
315 313 311 308 304 304 305 305 304 304 305 305 304 302 300 298 297 296 294 292 293 298 303 309 314 314 308 303 299 295 291 289 289 289 289 289 288 286 284 282 280 280 280 280 281 282 283 284 291 318 339 333 295 227 210 196 180 171 163 151 145 143 142 145 149 149 145 143 141 138 137 137 137 139 145 148 149 151 153 149 142 138 134 131 131 132 127
326 321 315 307 302 301 304 304 303 304 308 311 311 308 304 304 304 304 307 316 324 329 332 332 327 319 313 309 306 303 300 298 299 299 297 296 294 292 286 279 275 273 271 269 269 269 272 38 56 60 64 66 80 109 128 132 133 133 131 130 128 125 125 130 134 135 136 138 138 136 138 142 145 147 151 155 156 156 154 150 147 145 142 139 140 140 139
326 322 318 312 306 305 309 312 314 321 328 329 331 333 329 329 335 347 357 2 358 349 345 339 331 327 325 321 318 316 313 309 306 306 307 309 312 311 299 275 258 250 242 229 172 87 67 51 46 55 70 78 82 92 103 108 111 114 117 119 120 119 120 123 126 129 132 135 137 142 150 155 153 150 152 154 154 152 150 150 151 150 147 148 152 152 149
321 319 317 316 315 317 321 324 331 341 348 353 2 12 15 15 18 19 16 9 2 356 351 345 342 342 338 334 333 332 325 318 319 328 338 344 345 352 18 81 110 98 80 65 50 42 40 36 32 37 55 71 78 84 93 100 104 107 110 112 116 119 121 121 124 131 136 138 142 150 156 153 146 144 145 147 147 148 149 151 153 151 147 149 149 138 131
323 325 325 330 337 334 330 334 349 3 8 13 19 23 25 25 24 22 17 11 7 5 0 357 355 349 342 340 343 343 338 341 355 5 8 7 9 31 62 75 76 69 61 51 41 39 38 31 25 36 57 69 73 79 89 96 99 100 102 105 111 118 122 122 126 133 138 143 149 152 147 142 141 141 142 145 147 146 146 148 148 147 143 139 130 123 128
333 335 334 338 340 335 332 345 13 22 19 22 27 29 31 32 31 28 23 18 15 12 6 360 353 348 344 344 352 359 4 12 19 16 12 12 29 56 66 68 66 63 57 49 43 42 38 27 22 38 61 70 71 77 86 93 98 100 102 107 113 118 121 125 133 137 138 141 144 142 138 138 140 140 141 144 144 141 142 144 143 142 139 132 126 132 146
337 333 336 344 348 346 353 13 31 34 32 32 33 35 36 36 34 31 25 21 17 9 3 358 354 352 354 359 7 16 21 25 20 8 5 14 41 62 66 66 65 62 56 49 43 39 36 31 28 35 50 66 77 80 80 86 96 103 105 109 115 117 121 129 135 135 131 127 127 125 121 120 122 124 128 131 130 131 135 137 137 138 134 126 125 134 146
341 343 1 18 24 27 36 43 43 40 40 34 29 34 38 37 33 28 24 21 15 7 3 1 358 360 7 14 16 19 23 23 15 6 11 28 51 60 60 59 58 56 54 49 42 36 37 44 51 57 66 76 86 91 91 94 103 107 111 116 116 116 121 128 129 122 114 112 115 115 108 102 99 100 107 116 118 117 118 120 122 128 128 121 119 121 114
1 13 34 42 42 46 53 54 49 48 46 36 28 36 41 38 32 27 23 20 15 9 6 3 359 2 9 14 15 17 20 20 16 17 27 42 55 59 58 53 48 48 48 42 34 32 40 49 57 67 75 79 83 91 100 108 114 116 117 118 117 117 121 123 119 110 103 105 110 112 109 105 99 93 95 103 105 104 108 110 109 109 109 107 105 105 96
30 45 54 55 58 62 63 59 56 57 52 41 36 39 40 38 35 30 26 21 14 10 9 8 5 4 6 8 12 19 22 23 23 26 32 43 55 58 56 48 39 40 40 30 21 24 33 44 55 65 68 70 77 87 97 101 101 102 103 103 104 105 106 104 100 96 93 93 96 97 96 95 92 85 82 87 89 89 94 97 94 91 91 90 93 100 98
50 56 58 61 68 72 70 64 61 59 53 45 40 36 35 35 34 30 28 23 15 11 15 16 14 13 12 14 19 23 23 25 27 28 29 40 52 56 53 44 36 34 30 19 16 24 32 43 56 62 61 59 68 83 93 95 91 88 88 90 91 92 93 92 90 87 85 83 84 84 83 83 83 80 77 77 77 76 76 77 78 80 82 85 88 87 84
56 54 56 61 65 66 63 55 47 42 41 42 39 34 31 33 34 33 33 29 20 16 20 23 24 26 27 29 31 30 25 25 28 27 27 36 48 53 52 46 40 36 31 27 30 37 42 49 56 58 53 51 60 73 83 86 83 79 79 81 82 83 84 85 85 84 82 80 78 78 76 74 73 73 72 72 73 74 73 72 74 80 89 95 87 76 70
54 52 58 60 58 53 50 43 35 33 34 34 33 31 31 34 35 35 37 36 30 27 28 29 30 35 38 39 41 41 35 30 28 27 26 33 42 47 46 40 34 33 34 35 37 41 46 51 54 52 47 47 54 63 71 76 76 73 71 73 75 75 76 77 79 80 79 78 76 76 76 74 73 73 74 75 75 76 75 75 77 79 79 75 67 63 57
53 54 65 66 59 53 44 38 38 40 34 28 27 30 33 36 36 34 33 35 36 37 36 34 32 35 39 43 47 49 46 41 37 33 31 33 38 42 41 32 25 28 35 39 41 44 46 48 48 46 43 45 51 58 63 67 68 66 65 66 68 69 69 71 72 73 74 75 76 76 77 77 77 76 75 74 74 73 72 73 72 67 63 59 57 55 49
68 71 75 68 59 55 49 48 52 49 38 30 32 36 37 38 38 34 31 32 34 38 40 38 35 33 35 40 45 47 48 48 46 45 43 42 41 42 42 31 24 30 38 43 45 47 46 45 46 47 45 44 50 56 60 61 61 62 62 62 63 65 67 69 70 72 74 76 76 76 77 78 78 77 75 74 73 70 66 64 60 54 52 51 48 44 37
98 112 114 100 85 83 78 74 69 59 45 39 38 39 39 38 36 34 33 31 30 31 33 34 35 35 35 36 38 39 39 40 44 51 54 52 48 45 43 35 31 35 40 43 45 46 45 44 46 49 50 49 52 55 58 58 58 59 60 60 61 63 64 65 68 70 72 73 74 76 78 78 78 79 77 74 71 67 62 58 53 47 45 44 42 37 31
125 143 152 150 146 133 114 99 84 66 53 46 40 38 41 41 36 34 34 33 31 30 29 28 30 33 34 36 39 38 33 31 33 40 50 54 49 42 37 32 33 39 42 42 42 44 46 46 48 51 52 53 53 55 57 57 58 59 60 61 62 62 62 63 65 67 70 73 75 77 79 79 79 78 76 73 70 66 61 56 53 48 45 42 38 31 24
139 150 153 149 140 129 114 102 90 74 64 59 48 38 38 40 38 35 34 34 33 33 31 30 29 28 28 35 43 47 45 40 37 37 42 48 46 37 31 32 37 43 46 45 43 42 45 49 53 54 53 53 53 56 58 58 59 61 62 62 63 64 64 64 65 67 69 74 76 77 79 80 80 79 76 73 71 69 65 60 55 49 44 40 36 29 23
147 150 148 139 131 127 120 111 107 105 93 77 64 50 41 38 38 37 35 35 35 36 36 35 35 31 28 29 37 47 53 53 50 47 48 54 53 44 39 42 47 48 49 49 47 44 47 54 58 56 53 51 52 55 58 58 59 61 62 63 65 66 65 65 66 68 70 73 75 77 79 81 80 80 79 76 73 71 67 61 56 49 42 36 31 24 18
162 157 152 147 147 151 154 157 165 180 183 62 55 54 47 39 39 41 39 38 39 40 39 40 40 38 34 33 33 35 39 49 53 52 51 55 58 53 45 45 49 50 48 48 48 48 54 61 62 58 54 54 54 55 56 57 58 60 61 62 64 66 66 66 66 69 73 76 78 80 82 83 82 82 79 73 69 68 64 56 50 46 40 33 28 23 18
179 171 162 163 168 170 174 192 210 207 163 70 54 56 56 50 50 51 45 40 43 47 47 47 46 43 40 40 40 37 35 40 50 50 45 46 54 55 48 47 52 53 50 47 47 50 57 64 65 60 56 57 57 56 56 56 57 59 61 63 63 63 64 65 68 72 76 79 79 80 82 81 79 79 76 71 69 70 65 58 52 49 44 36 29 25 22
189 184 176 178 186 189 192 208 222 209 146 120 98 83 91 123 103 73 53 40 43 49 50 51 53 50 47 47 48 46 43 46 52 54 48 46 50 51 47 47 49 49 47 47 48 48 51 57 60 58 56 57 57 56 56 57 58 59 61 63 63 62 62 64 69 73 74 73 74 77 78 77 77 79 77 71 70 72 69 63 59 56 52 45 35 28 25
195 194 193 195 198 201 207 217 219 181 150 154 146 124 165 220 150 72 58 46 53 61 59 56 56 56 55 53 53 52 52 54 57 59 56 53 51 50 48 47 46 45 45 48 49 46 45 47 50 53 56 58 59 59 58 58 59 59 59 60 64 67 69 71 71 69 66 68 70 71 73 77 82 85 83 80 80 80 75 66 59 53 48 44 39 34 33
204 203 205 206 204 204 210 219 218 177 158 166 162 155 183 227 81 83 77 35 36 70 78 73 65 61 60 59 57 56 55 57 59 61 61 58 55 53 52 50 49 48 47 48 50 50 48 48 50 54 57 59 60 61 60 58 56 55 56 58 62 70 76 79 76 71 72 78 80 79 85 95 96 91 88 89 88 84 77 71 66 59 53 48 45 40 38
213 211 209 207 205 202 201 205 207 199 187 181 173 169 184 192 116 110 116 96 11 60 84 85 76 67 63 63 63 61 58 59 62 64 62 58 57 58 56 53 52 51 50 50 52 54 54 54 56 60 63 65 64 61 58 55 53 53 55 58 61 64 71 82 88 88 90 95 97 97 101 103 99 92 91 94 91 85 78 73 69 63 57 54 51 47 44
Height
773 768 767 767 769 770 768 766 767 766 765 765 767 768 762 760 764 762 752 752 757 755 751 749 748 751 754 756 758 760 762 765 767 769 771 771 772 773 774 776 777 778 780 782 784 785 786 787 788 789 790 791 792 792 792 792 791 791 791 791 791 790 789 789 789 790 791 792 791 792 791 791 791 790 790 791 791 792 792 792 792 793 795 796 798 799 799
773 770 767 765 767 768 768 767 766 765 764 763 763 763 761 759 759 756 754 757 758 755 752 748 745 747 749 751 755 759 762 765 766 768 769 770 771 773 775 777 778 780 781 782 784 785 786 787 788 788 789 790 791 792 792 792 792 792 793 792 792 791 791 791 791 791 791 790 790 790 789 789 789 789 789 789 789 789 790 789 790 791 792 793 794 797 800
777 772 769 766 765 765 766 767 764 762 762 761 760 761 760 761 760 757 759 764 761 754 749 747 747 749 750 752 756 760 762 764 766 767 768 770 771 773 775 777 779 780 781 783 784 785 786 787 787 787 788 788 789 790 790 790 790 791 791 791 790 790 790 790 790 790 789 789 788 788 787 787 787 787 787 788 787 787 787 788 788 789 789 790 791 795 799
779 772 769 766 765 765 765 764 762 762 763 762 760 760 760 762 764 764 764 764 759 751 747 746 748 751 752 752 755 759 762 764 765 766 768 770 772 774 775 777 779 780 781 783 784 785 786 786 786 787 787 787 787 788 789 789 789 789 790 789 788 788 788 788 787 787 787 786 786 785 785 785 785 786 786 786 786 786 786 787 788 787 787 788 789 792 796
778 771 769 768 771 774 770 765 763 762 762 761 759 758 756 756 760 764 763 759 755 752 750 749 749 752 753 753 755 760 763 764 765 766 767 769 772 774 776 778 779 780 781 783 784 785 786 786 786 786 786 787 787 788 788 788 788 788 788 788 787 787 787 786 785 785 785 784 784 784 784 783 783 784 784 784 783 784 785 786 787 786 786 787 788 789 791
780 773 771 777 784 781 771 765 764 764 764 764 763 761 759 758 759 762 759 756 757 757 754 753 753 754 756 758 760 763 764 764 766 766 767 770 772 775 777 778 779 780 782 783 784 785 786 786 786 786 786 786 786 787 787 787 787 787 787 787 787 786 786 785 785 784 784 783 783 782 782 781 781 781 781 781 781 781 782 783 784 784 784 785 787 788 789
780 774 779 792 790 777 768 766 766 767 767 767 766 766 767 767 766 764 762 761 762 761 759 759 759 759 760 761 762 764 765 766 766 766 768 770 773 775 776 778 779 781 782 783 784 785 785 785 786 786 785 785 786 786 786 786 786 786 786 786 785 785 784 784 783 783 782 782 781 780 779 779 778 777 777 778 779 779 780 780 781 782 783 784 785 786 788
780 779 784 790 781 767 765 768 769 770 770 769 770 770 771 772 770 767 765 765 765 765 764 763 763 762 762 762 764 766 768 768 768 768 769 770 772 774 776 778 780 781 782 783 784 784 785 784 784 784 784 784 784 784 784 784 784 784 783 783 782 782 781 781 781 781 780 780 779 778 777 776 775 775 775 775 776 777 778 778 779 779 781 782 784 786 788
780 780 778 774 769 765 765 771 776 777 776 776 777 775 773 774 773 769 768 768 767 767 767 766 766 765 763 763 766 767 769 770 771 771 771 773 773 775 777 779 780 781 782 782 782 783 783 783 782 782 782 782 782 782 782 782 782 781 781 780 780 779 779 779 779 778 778 777 776 775 774 774 773 773 773 773 774 775 776 777 777 777 778 781 784 786 788
779 780 780 777 775 772 772 777 780 781 780 779 781 779 775 775 775 773 771 771 770 769 769 769 769 768 765 764 767 770 771 771 773 773 773 774 775 776 777 778 779 780 780 781 781 781 781 780 780 780 780 781 781 780 780 780 780 780 779 779 778 777 777 777 777 776 776 775 774 773 772 771 771 771 771 772 772 773 774 775 775 776 777 780 783 785 787
780 783 787 784 778 776 780 783 780 779 780 781 783 783 778 778 780 777 775 775 773 772 773 772 771 770 766 763 766 773 774 772 774 775 774 774 775 776 777 777 778 778 779 779 779 779 778 778 778 778 779 778 778 778 779 779 779 778 778 777 776 776 775 775 775 774 774 773 772 771 770 769 769 769 770 770 771 771 772 773 773 775 777 779 781 784 786
784 786 788 781 772 775 784 785 781 780 781 783 789 788 783 785 786 782 779 779 776 775 776 775 771 769 766 763 767 774 775 773 774 775 774 775 775 775 775 776 777 777 777 777 776 775 775 775 775 776 776 776 776 776 776 776 776 776 776 775 774 774 774 773 773 772 772 771 770 769 768 767 767 768 768 769 769 770 770 770 771 774 776 778 781 784 787
785 786 788 780 773 780 789 786 782 783 783 786 791 791 790 792 790 785 784 784 780 779 779 776 773 769 767 768 771 774 774 774 774 774 774 774 773 773 774 774 775 775 774 774 773 773 773 773 773 773 773 773 773 773 773 773 773 773 773 773 772 772 771 771 770 770 769 769 768 767 767 766 766 766 767 768 768 769 769 770 771 774 775 777 781 784 787
787 785 787 783 780 787 794 790 784 784 787 790 791 792 794 794 790 787 787 784 782 782 781 779 778 776 774 775 775 775 775 775 774 774 773 772 772 772 772 772 773 772 771 771 771 770 770 771 771 771 770 770 770 770 770 770 770 770 770 770 769 769 768 768 767 767 767 767 766 765 765 765 765 765 765 766 767 768 770 770 771 773 775 777 781 784 787
791 791 792 792 790 791 793 793 790 790 792 793 792 792 792 790 788 789 787 784 783 784 783 781 781 779 778 778 777 777 777 775 774 773 772 772 771 770 770 769 769 769 768 767 767 767 767 768 767 768 767 766 766 767 766 767 768 768 767 767 767 766 765 765 764 764 764 764 764 763 763 763 763 763 764 765 766 767 769 770 771 772 775 778 782 785 787
799 800 795 793 794 793 793 795 796 795 794 794 793 792 790 788 787 788 787 786 785 785 785 783 781 780 780 779 778 777 776 775 774 772 771 771 770 769 769 768 767 767 766 764 764 764 764 765 765 764 764 763 763 763 763 764 764 764 764 764 764 763 763 762 762 762 762 762 761 761 760 761 761 761 762 764 765 766 767 769 772 774 777 779 782 786 789
804 803 795 791 793 792 791 792 793 793 793 792 792 791 790 789 788 786 787 787 785 785 785 783 781 780 779 777 776 775 773 772 771 770 769 769 768 767 766 766 765 765 762 761 761 761 761 761 762 761 761 760 759 759 760 761 761 761 761 761 760 760 760 759 759 759 759 760 760 759 758 759 759 759 761 762 764 766 768 769 772 776 779 781 783 785 788
803 800 795 794 794 791 789 790 791 791 792 790 789 790 790 790 789 788 787 786 784 784 783 781 780 779 776 774 773 772 770 769 768 767 766 765 764 764 762 762 761 760 759 757 757 756 757 758 758 757 757 756 755 755 756 757 757 757 757 757 756 756 756 756 756 757 757 757 758 757 757 757 757 758 759 761 762 765 768 770 772 775 780 782 783 783 785
808 803 796 793 793 792 791 791 791 790 789 788 788 789 790 790 789 788 787 785 784 782 781 779 778 776 774 773 771 769 768 766 764 763 762 761 760 760 758 758 758 757 755 754 753 752 752 753 753 752 752 751 751 751 751 752 753 753 753 753 753 753 753 753 754 754 754 755 755 755 756 756 757 758 759 759 761 764 767 770 773 775 778 781 782 783 785
807 803 796 792 792 791 790 790 789 787 787 786 786 788 789 789 789 787 785 784 782 779 777 776 774 772 771 770 768 766 764 762 760 759 758 757 756 755 754 755 754 753 751 750 748 748 748 748 748 748 747 746 746 746 746 747 748 748 748 749 749 749 750 751 751 751 751 752 753 754 755 755 756 758 759 760 762 764 767 769 772 775 777 780 783 784 785
803 799 794 792 792 790 789 789 788 786 787 788 787 788 787 786 785 784 782 781 779 777 775 773 771 769 767 766 765 763 761 759 757 756 754 753 753 752 751 751 750 749 748 746 745 744 744 744 744 743 742 742 742 742 742 743 743 743 744 744 745 746 747 747 747 748 748 749 751 752 754 755 757 759 761 762 764 767 770 771 773 776 778 780 783 785 785
803 797 794 795 797 795 791 789 789 788 789 788 787 786 785 782 781 780 778 776 775 773 771 770 768 766 763 763 762 760 758 756 755 753 752 751 750 749 748 747 746 745 744 742 742 741 740 740 740 739 738 738 738 738 738 738 738 739 739 740 740 741 743 744 744 744 745 747 749 751 753 755 756 758 761 764 765 767 770 773 774 777 779 780 781 783 784
804 799 797 798 801 798 792 790 790 789 787 787 785 783 781 779 778 777 776 774 772 770 767 766 765 763 761 760 760 757 755 754 752 751 750 748 747 746 745 744 742 741 740 739 739 737 737 737 736 734 733 733 732 733 733 733 734 734 734 735 735 736 738 739 740 741 743 745 748 750 752 753 755 757 761 764 767 769 771 773 775 777 779 780 780 781 782
805 802 800 800 800 797 793 791 790 787 786 785 783 781 779 778 777 776 774 773 771 768 765 764 764 762 760 759 758 756 754 752 750 748 747 746 745 744 742 741 740 739 737 737 735 734 733 732 731 729 728 727 727 727 727 727 728 728 728 729 730 731 733 735 737 739 741 744 747 749 752 753 755 758 760 764 768 772 773 775 777 779 780 780 780 780 782
805 802 800 800 799 795 792 790 788 786 785 784 783 781 779 777 776 775 773 771 769 768 765 763 762 761 759 757 756 754 752 749 747 746 745 744 743 742 740 739 738 737 735 733 731 730 729 728 727 725 724 722 722 721 720 720 721 721 722 723 725 727 730 732 735 737 740 743 745 748 752 755 757 759 762 764 768 773 775 776 778 779 779 779 780 781 783
804 801 799 799 796 793 791 789 786 785 785 783 781 778 776 774 773 772 771 769 767 766 764 761 759 759 757 755 754 753 750 748 746 745 744 742 740 739 737 736 734 733 731 729 728 727 726 725 723 722 719 717 716 714 713 714 714 715 716 718 721 724 726 729 733 736 739 743 746 748 751 755 757 760 762 764 768 772 775 776 778 778 778 780 781 782 784
803 802 800 799 795 792 791 789 786 784 782 780 778 775 773 772 770 768 767 766 765 763 762 760 758 757 756 754 752 751 750 747 746 744 742 739 737 735 734 732 730 729 728 727 726 725 723 722 720 717 714 712 710 709 709 709 710 711 714 716 718 722 725 728 732 736 739 743 746 748 750 753 757 761 764 766 769 771 774 775 776 777 779 781 783 784 785
803 802 800 799 797 793 790 788 785 782 780 778 776 774 771 769 767 766 764 762 761 761 760 758 757 756 755 753 751 749 747 746 743 741 739 736 734 732 730 728 727 726 725 725 724 722 721 719 716 714 711 709 707 705 705 705 706 709 711 714 718 722 726 730 733 736 739 742 745 748 751 754 759 763 766 768 770 771 773 774 775 777 780 782 784 785 786
801 800 798 796 794 791 788 786 783 780 779 777 774 772 770 767 766 765 763 761 761 760 759 759 758 757 755 753 751 749 747 745 742 740 737 734 732 729 726 724 723 723 722 722 722 721 720 718 715 713 712 709 707 705 704 705 706 708 711 715 720 724 728 731 735 738 741 744 748 752 754 757 761 764 766 768 769 770 772 773 775 777 779 782 784 785 786
799 797 795 793 791 789 786 784 781 778 778 776 773 770 768 766 766 766 765 764 763 762 761 760 759 757 755 753 751 749 747 744 741 739 736 732 729 726 722 719 719 720 720 721 721 721 720 718 716 714 713 712 710 708 707 708 709 712 715 719 723 727 730 733 737 740 744 748 751 755 757 759 761 763 765 767 768 769 771 773 775 777 779 780 782 784 785
798 795 793 790 788 786 784 782 781 779 778 777 775 772 770 769 769 769 769 767 766 765 764 762 760 757 756 753 751 748 746 743 740 737 734 730 727 724 720 718 718 719 720 721 722 721 720 719 717 716 715 714 714 713 713 713 715 718 721 724 727 731 734 737 740 743 746 749 753 756 758 759 761 763 765 766 768 769 771 773 774 776 777 779 781 783 784
796 793 790 788 787 785 783 782 782 782 781 780 778 777 775 774 773 773 771 770 768 766 765 762 760 759 757 754 751 748 745 742 739 736 733 730 728 724 722 720 720 720 722 723 724 723 722 721 720 720 719 718 718 718 719 719 720 723 726 729 732 735 738 741 744 746 748 751 754 756 758 760 761 763 765 767 768 769 771 772 774 776 777 779 781 783 785
797 793 791 790 789 788 786 785 785 785 784 783 782 781 779 777 776 775 774 772 770 768 766 765 763 761 758 755 752 749 745 741 739 737 734 732 729 726 724 723 723 724 725 727 727 726 725 724 724 723 723 723 723 723 724 725 727 729 731 734 736 739 741 744 746 748 751 753 755 757 759 760 762 764 766 767 768 769 771 773 774 776 778 780 782 783 784
797 796 795 794 793 792 789 788 787 787 787 786 784 783 782 780 779 777 776 775 773 771 769 767 765 762 760 756 753 749 745 743 741 739 737 735 732 729 728 727 727 728 729 730 730 730 729 729 728 727 727 727 727 728 729 730 732 734 736 738 740 742 745 747 749 751 753 755 756 758 760 762 763 765 766 767 768 770 772 774 776 778 779 781 783 783 784
797 796 795 795 795 793 791 791 790 790 789 789 787 786 784 783 782 780 779 778 776 775 772 770 767 764 761 758 754 751 749 747 746 744 741 738 735 733 731 731 731 732 733 734 735 736 735 734 732 732 732 731 731 732 733 734 736 738 739 741 743 745 747 750 752 753 755 756 758 760 761 763 765 766 767 769 770 772 774 776 777 779 780 781 782 783 783
796 795 795 796 796 794 793 793 793 792 791 791 790 788 787 785 784 783 782 781 779 778 775 773 769 766 763 760 758 756 754 752 750 747 744 741 739 737 735 736 737 737 737 738 740 741 741 739 737 736 735 734 734 735 736 737 739 740 742 743 745 747 750 752 753 755 756 758 760 761 763 764 766 768 769 770 772 774 775 777 778 779 780 781 782 782 782
797 797 797 797 796 795 795 795 794 793 793 792 791 790 789 787 786 785 785 784 782 780 778 776 773 770 767 765 763 759 756 754 751 749 747 746 743 740 739 741 742 741 741 743 744 745 745 743 741 738 737 738 738 739 740 741 742 744 745 747 749 750 752 754 755 757 759 760 762 763 765 767 768 770 771 772 774 775 777 779 779 780 780 781 782 782 782
799 799 799 798 797 797 797 796 795 795 794 794 793 792 791 790 789 788 787 786 784 783 781 779 776 774 771 769 766 763 760 758 755 753 753 751 747 743 744 747 748 748 749 751 751 749 748 746 744 742 742 743 743 743 744 745 746 747 749 750 752 753 754 756 758 760 761 763 764 766 767 769 771 772 773 775 776 778 779 779 780 781 781 782 783 782 782
801 801 801 800 800 799 798 798 798 797 795 795 794 793 792 792 791 790 789 788 786 784 783 781 779 777 775 772 770 768 766 764 761 759 757 755 751 749 752 756 757 758 759 758 756 752 751 749 748 748 749 750 749 749 749 749 749 750 752 753 754 756 757 759 760 762 763 765 767 768 770 772 773 774 776 777 778 780 780 781 781 782 783 783 783 782 782
803 803 803 802 802 801 801 801 800 799 798 796 795 794 793 793 792 791 790 789 788 786 785 783 781 779 777 776 774 773 772 771 768 765 762 759 757 757 759 761 762 763 762 761 758 756 754 752 752 753 754 754 753 754 754 753 752 754 755 756 757 759 760 761 763 765 766 768 769 771 772 774 775 776 778 779 781 781 782 782 783 784 784 783 782 782 783
804 804 804 803 803 803 803 802 801 800 799 798 797 796 795 794 793 793 792 791 789 788 787 785 783 782 780 778 778 777 776 775 773 770 767 765 764 764 766 768 768 767 765 763 761 759 757 755 756 757 758 758 757 757 756 756 756 757 758 759 761 762 763 764 766 767 769 771 772 773 775 776 778 779 780 781 782 783 783 783 784 784 784 783 782 782 783
805 805 805 805 805 804 803 802 802 801 800 799 798 797 796 795 795 795 794 793 792 790 788 787 786 784 783 781 780 779 778 777 776 775 773 772 772 772 773 775 775 772 770 767 765 763 761 761 761 761 762 762 761 760 759 759 759 760 761 763 764 765 766 768 769 770 772 773 774 775 777 778 780 781 782 783 784 784 784 784 785 784 784 783 783 783 784
806 806 805 806 805 805 804 803 802 801 801 800 799 798 798 797 797 796 795 794 793 791 790 789 788 786 785 784 782 781 780 779 779 778 778 779 779 779 779 780 779 777 774 772 770 768 767 767 767 766 766 765 764 763 762 762 763 764 765 766 767 768 770 771 772 773 774 775 776 778 779 780 781 783 784 784 785 785 785 785 786 786 785 785 784 784 785
805 805 805 805 805 804 803 802 802 802 801 801 800 800 799 798 798 797 796 796 795 793 792 791 789 788 788 787 785 785 784 783 782 781 781 781 782 783 783 783 782 780 778 777 775 774 773 772 772 771 770 769 768 766 766 766 768 769 769 770 771 772 773 774 775 776 777 778 779 780 781 782 783 784 785 786 786 786 787 787 787 787 787 786 786 785 785
804 804 804 804 803 802 802 802 802 802 802 802 802 801 800 800 799 799 798 797 796 795 794 793 792 791 790 789 789 789 789 788 787 786 785 784 786 787 787 787 785 784 782 781 780 779 778 777 776 775 774 773 772 771 771 771 772 773 774 775 776 776 777 778 778 779 780 780 781 782 783 783 784 785 786 787 788 788 788 788 788 788 788 787 787 786 786
803 803 803 803 803 803 803 803 803 803 803 802 802 802 801 801 801 800 799 799 798 797 796 796 795 794 793 792 791 791 791 791 791 791 790 790 791 791 791 790 788 787 786 784 783 783 782 781 780 778 777 777 776 775 775 776 777 777 778 778 779 779 780 781 781 782 782 783 783 784 785 785 786 787 788 789 789 789 789 789 789 789 789 788 787 787 787
801 801 801 802 802 803 803 803 803 803 802 801 801 802 802 802 802 801 801 800 799 799 798 798 797 796 795 794 793 793 792 792 793 793 794 794 794 794 793 792 791 790 789 788 787 786 785 784 782 782 781 780 780 779 780 780 781 781 781 782 782 782 783 783 784 784 785 785 785 786 787 787 788 789 790 790 790 790 790 790 790 790 789 789 788 788 787
800 799 800 801 802 802 803 803 802 801 801 801 801 802 802 803 802 802 802 801 801 800 800 799 799 798 798 797 796 796 795 794 794 795 796 796 796 795 795 794 793 792 792 791 790 789 788 786 785 785 784 783 783 783 784 784 784 784 785 785 785 785 785 786 786 787 787 787 788 788 789 789 790 791 791 791 791 791 791 790 790 790 789 789 789 788 788
798 798 799 800 800 800 801 801 800 799 800 801 802 802 802 802 802 802 802 802 801 801 801 801 800 800 800 799 799 799 798 797 797 798 798 797 797 797 796 796 795 793 793 793 793 792 791 789 788 788 787 787 787 787 787 788 788 788 788 788 788 788 788 788 788 788 789 789 790 790 790 791 791 792 792 792 792 791 791 791 791 790 790 790 789 789 788
796 797 797 798 798 798 799 798 797 798 799 800 801 801 802 801 801 801 802 802 802 801 802 802 802 801 801 801 801 801 800 800 800 800 800 799 799 798 798 797 796 795 795 795 794 794 793 792 791 791 791 790 790 791 791 791 791 791 791 790 791 790 790 790 790 790 791 791 791 791 792 792 792 792 792 792 792 792 792 792 791 791 791 790 790 789 789
794 794 795 795 795 796 796 796 796 797 798 799 800 800 801 800 800 801 802 802 802 801 801 802 802 802 802 802 802 802 802 802 801 801 801 801 801 800 800 799 799 798 797 797 796 796 796 795 794 794 794 794 794 794 793 793 793 793 793 792 792 792 792 792 792 792 792 792 792 792 792 793 793 793 793 793 793 793 793 792 792 792 792 791 791 790 789
792 792 793 793 794 794 795 795 796 797 797 797 798 799 799 799 799 800 802 802 801 801 801 802 803 803 803 803 803 803 803 803 802 802 802 802 802 802 801 801 800 800 799 799 798 798 798 798 797 797 796 796 796 796 796 795 795 795 794 794 794 794 793 793 793 793 793 793 793 793 793 793 794 794 794 794 794 793 793 793 793 793 793 792 792 791 790